User: anonymous   Login
Location: Bittelbronn
(48.4454°N, 8.5870°E)
Time: 16:52:20
(UTC+00:00)
Language:

Cosmos 1763 Rocket - Orbit

View from above orbital plane
View from above orbital plane
View from above satellite
View from above satellite

Ground track
Ground track

The orbit data is extracted from the following two-line orbital elements,

1 16864U 86052B   24199.88484565  .00000927  00000-0  29206-3 0  9999
2 16864  74.0306 344.8674 0032417 169.6561 190.5269 14.41440509995326
Epoch (UTC): 17 July 2024 21:14:10
Eccentricity: 0.0032417
inclination: 74.0306°
perigee height: 730 km
apogee height: 777 km
right ascension of ascending node: 344.8674°
argument of perigee: 169.6561°
revolutions per day: 14.41440509
mean anomaly at epoch: 190.5269°
orbit number at epoch: 99532

The dashed part of the orbit path shows where the satellite is in the earth's shadow,  

DLR